Boulder Muni, Boulder, CO, CO

11:13 PM MDT on October 15, 2019 (GMT -0600)
Boulder Muni, Boulder, CO

Weather History for KBDU - August, 2019

Change the Weather History Date:

Thursday, August 8, 2019

  Actual Average Record
Temperature  
Mean Temperature 71 °F -  
Max Temperature 79 °F - 91 °F (2016)
Min Temperature 63 °F - 54 °F (2017)
Degree Days  
Heating Degree Days 0    
Month to date heating degree days 0  
Cooling Degree Days 6    
Month to date cooling degree days 81  
Growing Degree Days 20 (Base 50)    
Moisture  
Dew Point 60 °F    
Average Humidity 68    
Maximum Humidity 93    
Minimum Humidity 43    
Precipitation  
Precipitation 0.03 in - 0.03 in (2019)
Snow  
Snow 0.00 in - - ()
Snow Depth 0.00 in    
Sea Level Pressure  
Sea Level Pressure 30.13 in    
Wind  
Wind Speed 2 mph (NW)    
Max Wind Speed 6 mph    
Max Gust Speed -    
Visibility 10 miles    
Events Rain , Thunderstorm    
T = Trace of Precipitation, MM = Missing Value Source: NWS Daily Summary

Daily Weather History Graph

Daily Weather History Graph

Search for Another Location

Airport or City:

Astronomy

Aug. 08, 2019 Rise Set
Actual Time 6:05 AM MDT 8:06 PM MDT
Civil Twilight 5:35 AM MDT 8:36 PM MDT
Nautical Twilight 4:59 AM MDT 9:12 PM MDT
Astronomical Twilight 4:20 AM MDT 9:51 PM MDT
Moon 2:45 PM MDT (8/8) 12:29 AM MDT (8/8)
Length of Visible Light 15h 00m
Length of Day
14h 01m
First Quarter, 61% of the Moon is Illuminated
Aug 8
First Quarter
Aug 15
Full
Aug 23
Last Quarter
Aug 30
New
Sep 5
First Quarter

Hourly Weather History & Observations

Time (MDT) Temp. Dew Point Humidity Pressure Visibility Wind Dir Wind Speed Gust Speed Precip Events Conditions
12:12 AM 66.2 °F 62.6 °F 88% 30.14 in 10.0 mi SE 3.5 mph - N/A   Clear
12:30 AM 66.2 °F 60.8 °F 83% 30.15 in 10.0 mi ESE 3.5 mph - N/A   Clear
1:12 AM 64.4 °F 60.8 °F 88% 30.16 in 10.0 mi NNW 3.5 mph - N/A   Clear
1:30 AM 64.4 °F 60.8 °F 88% 30.15 in 10.0 mi WNW 3.5 mph - N/A   Clear
1:54 AM 64.4 °F 60.8 °F 88% 30.15 in 10.0 mi Calm Calm - N/A   Clear
2:12 AM 64.4 °F 60.8 °F 88% 30.15 in 10.0 mi Calm Calm - N/A   Clear
2:30 AM 64.4 °F 60.8 °F 88% 30.15 in 10.0 mi Calm Calm - N/A   Clear
2:48 AM 64.4 °F 60.8 °F 88% 30.15 in 10.0 mi SSW 3.5 mph - N/A   Scattered Clouds
3:12 AM 64.4 °F 60.8 °F 88% 30.14 in 10.0 mi Calm Calm - N/A   Scattered Clouds
3:30 AM 64.4 °F 60.8 °F 88% 30.14 in 10.0 mi West 3.5 mph - N/A   Scattered Clouds
3:48 AM 64.4 °F 60.8 °F 88% 30.13 in 10.0 mi Calm Calm - N/A   Scattered Clouds
4:12 AM 64.4 °F 59.0 °F 83% 30.13 in 10.0 mi Calm Calm - N/A   Mostly Cloudy
4:30 AM 64.4 °F 59.0 °F 83% 30.13 in 10.0 mi ESE 3.5 mph - N/A   Scattered Clouds
4:48 AM 64.4 °F 57.2 °F 77% 30.13 in 10.0 mi Calm Calm - N/A   Mostly Cloudy
5:12 AM 64.4 °F 60.8 °F 88% 30.13 in 10.0 mi Calm Calm - N/A   Scattered Clouds
5:30 AM 62.6 °F 60.8 °F 94% 30.13 in 10.0 mi Calm Calm - N/A   Mostly Cloudy
5:48 AM 62.6 °F 60.8 °F 94% 30.13 in 10.0 mi Calm Calm - N/A   Overcast
6:08 AM 64.4 °F 60.8 °F 88% 30.14 in 10.0 mi Calm Calm - N/A   Mostly Cloudy
6:32 AM 64.4 °F 62.6 °F 94% 30.14 in 10.0 mi Calm Calm - N/A   Overcast
6:50 AM 64.4 °F 62.6 °F 94% 30.14 in 10.0 mi Calm Calm - N/A   Overcast
7:12 AM 64.4 °F 60.8 °F 88% 30.14 in 10.0 mi Calm Calm - N/A   Overcast
7:30 AM 64.4 °F 60.8 °F 88% 30.14 in 10.0 mi NE 3.5 mph - N/A   Overcast
7:48 AM 66.2 °F 60.8 °F 83% 30.14 in 10.0 mi Calm Calm - N/A   Overcast
8:12 AM 68.0 °F 60.8 °F 78% 30.14 in 10.0 mi Calm Calm - N/A   Overcast
8:30 AM 68.0 °F 60.8 °F 78% 30.14 in 10.0 mi Calm Calm - N/A   Mostly Cloudy
8:48 AM 69.8 °F 60.8 °F 73% 30.14 in 10.0 mi Calm Calm - N/A   Overcast
9:12 AM 69.8 °F 59.0 °F 68% 30.14 in 10.0 mi Calm Calm - N/A   Overcast
9:30 AM 71.6 °F 60.8 °F 69% 30.14 in 10.0 mi East 3.5 mph - N/A   Overcast
9:48 AM 71.6 °F 60.8 °F 69% 30.15 in 10.0 mi East 3.5 mph - N/A   Scattered Clouds
10:12 AM 73.4 °F 59.0 °F 61% 30.15 in 4.0 mi NE 3.5 mph - N/A   Haze
10:33 AM 73.4 °F 60.8 °F 65% 30.15 in 2.0 mi NNE 3.5 mph - N/A   Haze
10:51 AM 77.0 °F 60.8 °F 57% 30.15 in 5.0 mi ESE 4.6 mph - N/A   Haze
11:11 AM 77.0 °F 60.8 °F 57% 30.14 in 7.0 mi East 4.6 mph - N/A   Mostly Cloudy
11:53 AM 77.0 °F 59.0 °F 54% 30.14 in 10.0 mi East 3.5 mph - N/A   Clear
12:12 PM 78.8 °F 55.4 °F 44% 30.14 in 10.0 mi NE 6.9 mph - N/A   Scattered Clouds
12:30 PM 77.0 °F 53.6 °F 44% 30.14 in 10.0 mi NNE 6.9 mph - N/A   Mostly Cloudy
12:54 PM 77.0 °F 55.4 °F 47% 30.14 in 10.0 mi NNE 5.8 mph - N/A   Scattered Clouds
1:12 PM 77.0 °F 55.4 °F 47% 30.14 in 10.0 mi NNE 5.8 mph - N/A Rain Light Rain
1:30 PM 77.0 °F 55.4 °F 47% 30.14 in 10.0 mi ENE 4.6 mph - N/A   Mostly Cloudy
1:54 PM 77.0 °F 55.4 °F 47% 30.13 in 10.0 mi NNW 5.8 mph - N/A   Mostly Cloudy
2:11 PM 77.0 °F 55.4 °F 47% 30.12 in 7.0 mi North 4.6 mph - N/A   Overcast
2:29 PM 78.8 °F 53.6 °F 42% 30.11 in 10.0 mi Calm Calm - N/A   Scattered Clouds
2:53 PM 77.0 °F 53.6 °F 44% 30.11 in 10.0 mi Calm Calm - N/A   Clear
3:12 PM 78.8 °F 55.4 °F 44% 30.10 in 10.0 mi Calm Calm - N/A   Clear
3:30 PM 77.0 °F 55.4 °F 47% 30.10 in 10.0 mi Calm Calm - N/A Thunderstorm Thunderstorm
3:54 PM 77.0 °F 59.0 °F 54% 30.11 in 10.0 mi Calm Calm - N/A   Light Drizzle
4:11 PM 73.4 °F 60.8 °F 65% 30.12 in 10.0 mi NW 5.8 mph - N/A Rain Light Rain
4:34 PM 69.8 °F 62.6 °F 78% 30.13 in 7.0 mi WNW 8.1 mph - 0.02 in Rain Rain
4:52 PM 69.8 °F 62.6 °F 78% 30.10 in 10.0 mi West 3.5 mph - 0.02 in Rain Light Rain
5:12 PM 69.8 °F 62.6 °F 78% 30.10 in 10.0 mi WSW 6.9 mph - N/A Rain Light Rain
5:30 PM 69.8 °F 62.6 °F 78% 30.09 in 10.0 mi WSW 8.1 mph - N/A   Light Drizzle
5:54 PM 71.6 °F 62.6 °F 73% 30.09 in 10.0 mi WSW 5.8 mph - N/A   Mostly Cloudy
6:14 PM 71.6 °F 60.8 °F 69% 30.11 in 10.0 mi West 10.4 mph - N/A Thunderstorm Unknown
6:33 PM 69.8 °F 60.8 °F 73% 30.09 in 10.0 mi South 3.5 mph - 0.01 in Rain Light Rain
7:12 PM 69.8 °F 60.8 °F 73% 30.08 in 10.0 mi Calm Calm - N/A   Clear
7:30 PM 71.6 °F 60.8 °F 69% 30.09 in 10.0 mi Calm Calm - N/A   Clear
7:48 PM 69.8 °F 62.6 °F 78% 30.10 in 10.0 mi Calm Calm - N/A   Clear
8:12 PM 69.8 °F 60.8 °F 73% 30.11 in 10.0 mi Calm Calm - N/A   Clear
8:30 PM 68.0 °F 62.6 °F 83% 30.11 in 10.0 mi NNW 3.5 mph - N/A   Clear
8:48 PM 66.2 °F 62.6 °F 88% 30.11 in 10.0 mi West 4.6 mph - N/A   Scattered Clouds
9:12 PM 66.2 °F 62.6 °F 88% 30.12 in 10.0 mi Calm Calm - N/A   Clear
9:30 PM 66.2 °F 62.6 °F 88% 30.12 in 10.0 mi SW 3.5 mph - N/A   Clear
9:48 PM 66.2 °F 60.8 °F 83% 30.13 in 10.0 mi SW 4.6 mph - N/A   Clear
10:12 PM 66.2 °F 60.8 °F 83% 30.13 in 10.0 mi SW 4.6 mph - N/A   Scattered Clouds
10:30 PM 66.2 °F 60.8 °F 83% 30.13 in 10.0 mi SW 3.5 mph - N/A   Scattered Clouds
10:48 PM 66.2 °F 60.8 °F 83% 30.13 in 10.0 mi SSW 4.6 mph - N/A   Scattered Clouds
11:12 PM 66.2 °F 60.8 °F 83% 30.13 in 10.0 mi Calm Calm - N/A   Clear
11:30 PM 64.4 °F 60.8 °F 88% 30.13 in 10.0 mi Calm Calm - N/A   Scattered Clouds
11:53 PM 64.4 °F 60.8 °F 88% 30.12 in 10.0 mi Calm Calm - N/A   Scattered Clouds